New York Downtown Manhattan/w, NY

2:02 PM EDT on September 20, 2019 (GMT -0400)
New York Downtown Manhattan/w

Weather History for KJRB - May, 2019

Change the Weather History Date:

Saturday, May 4, 2019

  Actual Average (KEWR) Record (KEWR)
Temperature  
Mean Temperature 60 °F -  
Max Temperature 66 °F 66 °F 94 °F (2001)
Min Temperature 53 °F 49 °F 37 °F (1941)
Degree Days  
Heating Degree Days 6    
Growing Degree Days 10 (Base 50)    
Moisture  
Dew Point 54 °F    
Average Humidity 91    
Maximum Humidity 100    
Minimum Humidity 73    
Precipitation  
Precipitation 0.05 in - - ()
Sea Level Pressure  
Sea Level Pressure 29.90 in    
Wind  
Wind Speed 3 mph (SW)    
Max Wind Speed 9 mph    
Max Gust Speed -    
Visibility 5 miles    
Events Rain , Thunderstorm    
Averages and records for this station are not official NWS values.
T = Trace of Precipitation, MM = Missing Value Source: NWS Daily Summary

Daily Weather History Graph

Daily Weather History Graph

Search for Another Location

Airport or City:

Astronomy

May. 04, 2019 Rise Set
Actual Time 5:51 AM EDT 7:55 PM EDT
Civil Twilight 5:21 AM EDT 8:25 PM EDT
Nautical Twilight 4:44 AM EDT 9:01 PM EDT
Astronomical Twilight 4:04 AM EDT 9:41 PM EDT
Moon 6:01 AM EDT (5/4) 7:41 PM EDT (5/4)
Length of Visible Light 15h 03m
Length of Day
14h 03m
Waning Crescent, 0% of the Moon is Illuminated
May 4
Waning Crescent
May 4
New
May 11
First Quarter
May 18
Full
May 26
Last Quarter

Hourly Weather History & Observations

Time (EDT) Temp. Dew Point Humidity Pressure Visibility Wind Dir Wind Speed Gust Speed Precip Events Conditions
12:10 AM 53.6 °F 51.8 °F 94% 29.99 in 5.0 mi ENE 3.5 mph - 0.00 in Rain , Thunderstorm Light Rain
12:38 AM 53.6 °F 51.8 °F 94% 29.99 in 5.0 mi Calm Calm - 0.00 in   Overcast
12:47 AM 53.6 °F 51.8 °F 94% 29.98 in 5.0 mi NNE 3.5 mph - 0.00 in Thunderstorm Overcast
12:56 AM 53.1 °F 51.1 °F 93% 29.98 in 5.0 mi NE 3.5 mph - 0.00 in Thunderstorm Overcast
1:13 AM 53.6 °F 51.8 °F 94% 29.99 in 5.0 mi West 4.6 mph - N/A   Overcast
1:22 AM 53.6 °F 51.8 °F 94% 29.99 in 6.0 mi WSW 3.5 mph - N/A   Overcast
1:56 AM 53.1 °F 52.0 °F 96% 29.96 in 5.0 mi Calm Calm - 0.00 in   Overcast
2:56 AM 54.0 °F 52.0 °F 93% 29.91 in 6.0 mi NE 9.2 mph - N/A   Overcast
3:28 AM 53.6 °F 51.8 °F 94% 29.91 in 7.0 mi NNE 4.6 mph - N/A   Overcast
3:56 AM 54.0 °F 52.0 °F 93% 29.92 in 6.0 mi Calm Calm - N/A   Scattered Clouds
4:41 AM 53.6 °F 51.8 °F 94% 29.90 in 6.0 mi Calm Calm - N/A   Scattered Clouds
4:56 AM 53.1 °F 52.0 °F 96% 29.90 in 5.0 mi Calm Calm - N/A   Partly Cloudy
5:44 AM 53.6 °F 51.8 °F 94% 29.90 in 5.0 mi West 5.8 mph - N/A   Mostly Cloudy
5:52 AM 53.6 °F 51.8 °F 94% 29.89 in 4.0 mi Calm Calm - N/A   Overcast
6:07 AM 53.6 °F 51.8 °F 94% 29.89 in 1.8 mi West 4.6 mph - N/A   Overcast
6:56 AM 53.1 °F 52.0 °F 96% 29.91 in 1.5 mi WSW 4.6 mph - N/A   Overcast
7:20 AM 53.6 °F 51.8 °F 94% 29.92 in 1.8 mi SW 3.5 mph - N/A   Overcast
7:41 AM 53.6 °F 51.8 °F 94% 29.92 in 1.8 mi SW 5.8 mph - N/A   Overcast
7:49 AM 53.6 °F 51.8 °F 94% 29.92 in 2.0 mi South 4.6 mph - N/A   Overcast
7:56 AM 53.1 °F 52.0 °F 96% 29.92 in 2.0 mi Calm Calm - N/A   Overcast
8:28 AM 53.6 °F 53.6 °F 100% 29.92 in 3.0 mi WSW 3.5 mph - 0.00 in Rain Light Rain
8:51 AM 55.4 °F 53.6 °F 94% 29.91 in 2.5 mi Calm Calm - 0.01 in   Scattered Clouds
8:52 AM 55.0 °F 54.0 °F 96% 29.91 in 2.5 mi Calm Calm - 0.01 in   Scattered Clouds
9:07 AM 55.4 °F 53.6 °F 94% 29.91 in 3.0 mi WSW 3.5 mph - N/A   Mostly Cloudy
9:56 AM 55.9 °F 53.1 °F 90% 29.91 in 4.0 mi WSW 4.6 mph - 0.00 in   Mostly Cloudy
10:41 AM 57.2 °F 55.4 °F 94% 29.91 in 5.0 mi West 3.5 mph - 0.00 in Rain Light Rain
10:56 AM 57.0 °F 55.0 °F 93% 29.91 in 4.0 mi Calm Calm - 0.00 in Rain Light Rain
11:23 AM 57.2 °F 55.4 °F 94% 29.90 in 3.0 mi Calm Calm - 0.00 in Rain Light Rain
11:33 AM 57.2 °F 55.4 °F 94% 29.90 in 2.5 mi Calm Calm - 0.01 in Rain Light Rain
11:41 AM 57.2 °F 55.4 °F 94% 29.90 in 3.0 mi Calm Calm - 0.01 in Rain Light Rain
11:56 AM 57.9 °F 55.0 °F 90% 29.89 in 3.0 mi Calm Calm - 0.01 in   Overcast
12:06 PM 57.2 °F 55.4 °F 94% 29.90 in 2.5 mi Calm Calm - 0.00 in Rain Light Rain
12:18 PM 59.0 °F 57.2 °F 94% 29.89 in 4.0 mi Calm Calm - 0.00 in Rain Light Rain
12:25 PM 59.0 °F 57.2 °F 94% 29.89 in 4.0 mi Calm Calm - 0.01 in Rain Light Rain
12:35 PM 59.0 °F 57.2 °F 94% 29.89 in 2.5 mi Calm Calm - 0.02 in Rain Light Rain
12:43 PM 57.2 °F 55.4 °F 94% 29.88 in 2.5 mi Calm Calm - 0.02 in Rain Light Rain
12:56 PM 57.9 °F 55.9 °F 93% 29.88 in 2.5 mi Calm Calm - 0.02 in   Mostly Cloudy
1:03 PM 59.0 °F 57.2 °F 94% 29.88 in 3.0 mi Calm Calm - N/A   Mostly Cloudy
1:56 PM 62.1 °F 57.9 °F 86% 29.87 in 4.0 mi Calm Calm - N/A   Partly Cloudy
2:32 PM 64.4 °F 57.2 °F 77% 29.86 in 2.5 mi Variable 3.5 mph - 0.01 in   Haze
2:56 PM 64.0 °F 57.9 °F 80% 29.86 in 3.0 mi Calm Calm - 0.01 in   Haze
3:56 PM 66.0 °F 57.0 °F 73% 29.84 in 5.0 mi West 6.9 mph - N/A   Haze
4:56 PM 66.0 °F 57.0 °F 73% 29.83 in 6.0 mi Variable 4.6 mph - N/A   Haze
5:56 PM 66.0 °F 57.9 °F 75% 29.83 in 8.0 mi Calm Calm - N/A   Overcast
6:56 PM 61.0 °F 55.0 °F 81% 29.83 in 7.0 mi Calm Calm - N/A   Mostly Cloudy
7:56 PM 59.0 °F 55.0 °F 87% 29.84 in 10.0 mi SSE 8.1 mph - N/A   Scattered Clouds
8:16 PM 59.0 °F 55.4 °F 88% 29.84 in 10.0 mi SSE 9.2 mph - N/A   Mostly Cloudy
8:56 PM 57.9 °F 54.0 °F 87% 29.85 in 10.0 mi SE 6.9 mph - N/A   Overcast
9:03 PM 57.2 °F 55.4 °F 94% 29.85 in 10.0 mi Variable 3.5 mph - N/A   Overcast
9:56 PM 57.0 °F 54.0 °F 89% 29.87 in 10.0 mi SE 5.8 mph - N/A   Overcast
10:56 PM 57.0 °F 54.0 °F 89% 29.85 in 7.0 mi ENE 3.5 mph - N/A   Overcast
11:56 PM 55.9 °F 54.0 °F 93% 29.85 in 5.0 mi NE 5.8 mph - N/A   Overcast